Wind_Speed
10 10 13 18 23 23 18 17 16 11 11 15 18 30 18 20 17 15 17 19 18 17 20 23 25 36 38 37 39 43 43 45 41 38 35 35 38 40 40 44 48 50 51 50
6 24 13 18 20 22 25 25 25 16 7 9 18 38 26 17 23 18 17 18 17 13 12 15 13 28 34 39 43 43 49 47 48 45 48 41 45 45 41 36 41 44 48 51
19 25 16 19 21 22 26 29 19 22 9 16 16 35 30 22 18 20 18 19 16 18 17 17 10 17 33 36 40 43 48 50 51 51 44 34 29 26 28 32 37 46 49 53
23 23 25 21 27 22 26 21 23 22 15 11 15 18 32 18 16 7 10 7 8 9 9 9 10 7 20 34 41 46 48 50 52 50 43 43 40 35 37 50 47 45 49 52
39 16 23 27 33 22 21 18 16 18 17 16 22 9 26 12 9 5 8 8 8 7 8 11 13 12 17 23 37 42 45 47 50 50 49 48 44 43 38 35 35 38 44 49
32 19 17 25 21 25 16 14 12 10 10 9 31 11 32 17 3 2 2 5 8 12 13 12 10 16 20 18 29 38 39 43 47 51 53 50 50 42 37 37 38 41 42 45
28 33 23 17 10 15 16 14 8 8 10 16 18 13 22 7 7 1 4 7 7 9 12 14 15 17 17 20 21 33 39 40 45 49 50 50 50 47 46 43 42 39 39 40
16 15 23 22 30 11 14 14 10 12 14 13 9 11 18 10 12 9 6 4 7 11 10 12 14 12 15 23 20 27 36 40 42 48 51 51 49 46 43 44 42 43 43 43
4 11 4 13 4 9 17 14 11 11 20 9 6 10 1 11 9 7 7 7 10 8 11 14 15 14 12 20 23 25 33 40 44 49 49 48 46 46 44 43 43 41 38 36
4 3 1 4 5 8 3 3 4 4 12 24 8 8 5 4 6 5 5 6 10 8 10 13 13 14 21 22 20 12 24 28 33 36 37 38 40 41 37 32 34 37 35 36
3 3 1 5 3 2 2 1 3 2 2 3 2 5 5 4 3 5 8 9 8 9 9 10 13 11 15 20 17 9 9 18 24 27 30 30 31 29 30 30 31 35 36 37
6 2 3 4 5 3 1 3 4 3 2 1 1 4 4 4 2 5 10 13 13 11 12 9 12 12 12 12 13 11 8 15 20 23 26 25 29 33 34 34 36 39 37 37
5 2 0 3 1 1 3 4 4 4 2 4 3 4 1 2 5 11 7 9 12 15 15 16 13 12 11 9 11 5 4 9 12 19 20 23 25 29 32 31 37 44 40 42
3 3 3 5 2 3 3 3 6 6 4 3 5 5 14 9 13 13 11 9 8 9 14 17 14 13 11 11 8 8 3 6 10 15 18 18 24 27 32 36 38 37 39 40
5 4 3 8 7 4 2 4 8 6 5 5 5 6 16 6 8 7 7 9 11 11 15 16 15 13 11 7 8 5 1 4 14 17 13 7 16 31 35 34 36 38 37 38
3 3 2 4 10 13 13 12 15 15 14 9 12 16 5 4 8 12 12 12 13 15 16 18 19 14 14 8 6 4 2 3 3 16 17 15 6 9 14 26 36 37 37 37
3 2 3 5 2 2 7 19 14 9 9 6 9 9 3 6 9 11 14 15 15 13 13 15 17 15 11 6 7 4 5 4 6 9 15 18 22 15 20 14 20 26 33 31
4 6 3 3 4 5 2 4 4 4 3 4 5 5 5 7 10 14 15 17 14 12 15 17 14 14 9 9 11 12 13 10 11 11 18 19 24 27 25 27 22 19 23 27
12 3 3 3 3 4 5 4 4 4 6 6 4 7 7 7 7 11 9 4 12 15 16 16 19 19 16 12 13 10 15 12 10 11 10 10 15 23 26 24 25 19 19 22
12 7 3 1 3 5 2 3 4 5 4 7 9 10 8 3 6 11 12 10 16 19 17 16 22 21 17 10 16 11 8 14 11 12 10 11 11 12 17 22 20 19 29 25
3 3 10 7 6 5 4 3 3 4 5 9 7 10 8 6 9 13 19 23 18 18 20 24 21 15 20 15 16 17 8 8 15 16 16 15 12 13 17 20 22 19 13 18
3 3 3 2 2 5 5 3 6 6 3 6 5 9 9 12 15 15 18 22 24 25 20 26 17 14 21 19 20 15 14 19 22 23 21 19 16 16 14 17 18 20 17 14
2 5 4 6 5 4 5 6 7 4 6 6 4 10 8 12 14 12 17 20 20 21 24 15 15 11 14 20 25 17 12 20 23 24 23 22 21 19 17 17 15 17 14 13
4 4 3 2 3 2 4 5 6 1 5 9 11 11 8 15 13 13 16 16 16 17 10 9 15 13 11 18 14 20 18 19 21 22 22 22 24 19 15 17 16 18 16 14
3 2 1 3 4 6 3 3 5 7 8 10 10 9 13 10 10 12 15 17 15 12 3 11 12 12 13 24 18 17 21 22 22 21 20 19 22 19 16 15 13 12 9 10
0 3 2 4 2 3 6 7 10 13 13 12 7 10 10 7 7 12 14 12 14 3 5 11 13 16 17 19 18 19 20 23 23 20 16 17 18 16 16 16 16 10 8 5
Wind_Direction
201 212 204 204 220 240 255 266 255 253 243 270 263 273 260 269 273 256 257 263 258 253 254 253 222 209 208 206 199 197 195 201 193 191 191 187 190 193 198 203 207 210 207 206
194 235 214 220 220 226 239 249 251 257 238 253 285 281 278 266 270 261 255 254 256 254 254 258 209 205 203 202 201 199 199 196 195 195 199 197 199 199 199 199 204 205 203 205
225 238 211 219 220 222 228 235 243 249 242 233 270 282 287 277 251 258 247 243 247 252 257 266 243 198 205 204 202 201 201 198 198 200 199 198 196 197 193 194 197 205 205 207
240 254 247 235 231 211 245 222 234 245 248 252 209 276 281 285 270 225 246 243 247 267 271 276 286 251 204 209 207 204 203 200 200 198 197 193 187 190 197 196 199 200 202 204
233 222 212 228 232 208 243 218 225 232 240 251 238 251 276 311 283 207 226 249 14 341 317 313 312 317 311 230 215 211 205 202 200 198 199 197 199 203 203 200 198 196 197 202
246 252 232 235 234 227 234 252 255 249 246 240 246 216 281 253 167 230 86 38 357 338 336 324 307 303 296 285 224 215 208 206 203 201 201 201 201 199 196 193 193 193 194 196
236 238 240 247 244 216 218 225 237 230 220 241 252 199 240 165 268 180 34 14 350 336 331 332 335 326 312 291 243 215 208 207 203 205 206 206 204 201 200 196 195 189 191 193
214 239 225 216 229 218 211 206 224 242 233 248 251 213 230 57 90 89 77 5 332 337 334 331 329 328 321 311 278 222 210 208 204 205 207 209 208 204 204 202 199 196 195 195
225 215 334 28 12 204 228 235 239 262 252 257 230 244 221 99 86 66 30 12 348 325 325 322 323 328 319 316 303 246 213 210 206 206 207 207 205 205 203 201 198 195 193 188
17 309 31 343 334 27 303 115 157 209 246 243 214 235 214 26 354 16 24 1 343 318 313 319 321 325 326 323 310 275 226 216 214 214 211 210 208 207 205 199 192 186 183 184
132 214 55 206 157 196 54 5 106 120 141 296 359 271 180 176 269 339 338 334 326 326 310 305 309 308 314 324 331 313 242 208 207 208 206 205 206 201 195 184 178 180 179 182
201 213 249 260 337 342 131 161 133 142 202 196 318 267 241 214 0 317 323 322 317 319 320 298 300 308 312 315 322 320 257 214 199 189 193 192 186 182 180 176 178 183 181 183
175 200 141 306 66 21 187 182 128 92 95 194 189 256 292 297 278 292 312 311 309 310 319 317 307 297 296 299 306 295 279 240 205 192 187 184 182 174 178 177 180 184 185 188
262 213 213 195 129 163 197 219 195 153 173 184 221 276 279 283 294 307 315 316 302 306 310 301 297 292 292 292 280 293 19 158 190 194 190 177 174 174 174 180 180 174 177 178
179 240 215 250 283 340 324 187 196 201 206 199 252 239 272 305 319 320 323 322 316 311 301 292 285 287 284 274 286 298 295 150 146 119 96 44 183 183 185 183 180 176 179 179
145 267 210 277 255 240 250 249 248 221 237 245 259 267 313 315 319 313 316 315 309 309 303 304 293 278 278 279 254 236 25 302 168 154 151 157 82 113 138 163 163 171 175 179
240 236 217 253 85 233 252 234 218 228 235 231 240 259 6 316 300 298 305 293 286 289 302 318 293 274 260 258 246 173 129 154 127 109 125 141 138 151 130 134 130 152 163 171
214 232 218 296 134 229 300 19 85 198 247 215 264 269 274 265 280 290 272 266 282 280 299 305 308 290 248 241 209 184 156 138 126 121 120 131 135 136 145 144 141 148 158 165
208 147 272 224 218 274 220 195 162 175 262 195 249 280 265 270 300 289 259 256 277 283 290 289 290 294 259 213 195 177 144 145 128 113 127 135 140 136 138 141 140 152 160 162
193 203 160 228 223 227 177 170 158 115 268 201 218 255 266 328 303 290 286 282 288 281 279 282 281 284 260 219 166 145 162 138 127 121 116 123 142 140 134 141 144 160 170 165
169 201 223 226 247 283 234 154 123 132 235 211 214 243 253 244 236 268 294 296 294 283 278 274 267 262 260 196 177 144 184 143 148 145 143 144 144 146 146 146 138 145 149 152
202 188 210 135 178 273 167 132 185 221 239 223 246 253 252 259 271 272 285 295 301 298 285 264 243 243 236 183 173 163 168 157 151 146 143 137 133 135 138 134 134 136 144 138
251 184 182 195 214 241 204 216 233 212 233 252 227 264 257 267 271 280 292 301 303 299 293 248 205 187 148 172 167 140 139 149 145 142 141 138 135 135 140 132 124 122 129 135
225 175 216 112 251 287 271 265 252 269 261 274 262 263 268 267 277 290 299 302 311 311 287 193 165 129 112 91 100 124 140 146 137 128 132 139 138 132 140 136 142 146 148 149
228 17 284 268 295 322 260 301 306 310 293 292 278 254 265 252 276 295 306 307 309 307 300 116 120 113 109 105 105 116 130 144 125 120 127 122 122 131 132 128 131 132 148 172
237 184 157 232 269 261 268 295 304 292 285 281 286 303 275 229 267 296 308 317 311 307 29 71 83 94 103 107 104 111 124 131 127 115 111 112 115 122 126 118 99 104 121 121
Height
727 727 713 717 719 717 720 718 714 712 707 709 698 675 679 671 669 674 670 662 658 654 644 642 645 647 652 659 663 668 676 683 693 698 705 709 712 718 725 730 734 738 744 750
721 699 703 702 706 713 716 717 708 706 705 709 697 660 661 666 657 660 660 654 649 646 639 632 635 638 643 646 651 657 660 669 676 683 687 694 698 704 712 722 728 733 737 744
705 669 687 695 698 704 698 699 705 703 701 696 697 664 644 643 647 641 639 640 638 635 632 627 627 629 631 637 642 646 650 656 663 669 681 690 699 708 712 715 719 723 728 732
685 671 687 689 684 693 689 680 689 695 703 704 689 672 630 639 640 639 638 636 637 633 632 629 625 624 625 627 629 633 639 645 652 661 670 674 675 682 687 689 698 710 718 723
649 662 672 679 664 677 667 674 678 683 690 698 684 694 597 628 642 640 636 632 642 645 641 636 631 628 626 626 625 626 628 636 641 650 656 659 666 671 681 690 698 704 710 716
653 662 660 655 661 661 661 674 676 678 684 695 651 687 619 630 639 632 633 644 647 644 638 635 631 626 620 619 618 620 624 627 634 639 643 647 652 661 670 677 684 690 696 705
654 653 655 654 658 653 658 671 679 684 680 669 646 674 646 608 629 637 647 649 650 647 643 637 632 625 618 613 612 612 614 617 623 630 636 638 642 649 653 661 669 679 686 694
649 653 645 639 643 646 652 654 665 663 662 655 640 650 627 630 641 646 648 648 648 646 643 639 634 627 620 613 607 604 604 607 614 618 621 629 636 640 646 652 658 663 670 677
652 641 658 654 649 642 639 649 645 650 654 660 655 640 622 640 647 649 652 650 649 648 644 639 634 629 621 613 603 598 594 597 601 604 611 617 624 631 633 640 648 655 665 672
683 665 676 671 666 660 656 661 657 656 647 636 634 633 631 652 650 651 653 654 650 649 644 639 634 628 623 613 602 594 593 593 598 606 612 616 620 625 633 640 645 650 658 668
684 690 671 668 666 660 668 667 669 677 679 673 682 651 652 650 649 650 651 649 648 646 643 639 633 629 621 616 606 597 596 593 595 599 606 611 617 623 628 634 640 648 654 663
683 680 675 663 662 660 663 674 670 679 685 684 684 668 652 646 645 649 645 647 643 639 637 636 632 626 619 613 607 602 598 595 593 596 601 605 609 614 622 627 635 642 649 658
676 674 682 673 667 666 669 669 671 685 688 680 677 676 649 652 651 648 649 645 645 641 632 628 626 626 620 613 610 604 600 598 598 597 599 603 607 609 617 622 629 634 641 651
676 675 677 670 656 665 669 665 670 676 683 686 675 668 654 656 654 649 647 646 644 642 635 629 626 621 616 614 609 607 601 597 595 598 601 603 605 608 611 617 623 627 623 646
678 678 679 675 667 665 666 664 669 678 679 683 671 670 651 657 659 658 656 651 646 642 639 629 621 614 611 611 607 605 605 604 599 596 600 606 607 607 607 613 618 625 635 644
677 681 677 675 664 668 671 669 664 667 665 667 664 663 655 665 658 655 653 653 643 639 633 626 617 610 609 609 608 605 605 609 606 597 598 601 612 610 610 611 613 624 636 639
678 678 682 678 668 670 674 660 659 657 657 660 667 659 668 665 661 658 653 651 640 636 632 625 618 607 606 606 607 607 607 610 610 608 608 609 605 609 608 615 617 629 631 639
687 677 678 676 673 675 655 654 654 656 662 669 669 667 664 662 660 656 651 642 638 634 630 624 617 609 603 604 605 605 607 610 611 613 609 614 616 614 624 621 626 633 636 641
678 682 680 686 672 661 654 663 662 662 661 665 666 664 660 658 658 646 639 636 636 631 626 621 615 609 605 601 603 605 606 611 612 611 616 620 620 618 617 626 625 636 644 647
669 677 690 686 689 669 654 656 659 664 671 661 659 658 659 659 663 640 630 631 629 624 618 613 609 605 603 600 600 605 610 609 614 613 618 620 628 632 625 627 635 642 646 647
677 679 674 682 673 670 666 659 661 679 667 655 655 655 655 656 648 634 626 619 619 614 608 604 602 597 594 593 597 599 609 607 610 613 619 625 630 636 637 640 634 644 656 659
679 683 704 692 683 677 657 661 665 659 649 649 649 649 646 640 635 633 625 616 605 600 595 588 589 587 587 591 594 599 604 608 609 613 621 626 631 635 642 644 644 640 655 661
677 668 672 670 675 658 657 654 646 646 647 644 645 640 638 636 630 628 621 611 601 588 574 566 572 579 582 587 588 594 603 606 607 613 621 625 630 638 645 646 648 646 651 658
656 652 663 658 645 646 646 647 647 645 645 643 640 637 635 631 626 624 617 607 597 586 563 560 565 572 581 584 589 589 602 606 612 616 621 627 631 637 648 644 650 654 658 664
657 656 657 656 650 649 643 644 644 643 641 637 632 631 627 624 623 620 612 604 595 584 574 567 571 577 585 586 596 601 604 610 616 620 629 631 629 640 649 648 649 650 660 668
662 659 670 670 654 655 651 647 645 643 638 633 631 626 622 620 620 615 608 601 590 588 578 574 577 581 587 595 600 606 611 614 617 623 628 631 637 646 651 652 652 659 663 667